This demonstration page uses our WeatherBlox Daily Observations layout. Learn more.

Left ArrowRight Arrow

36.19886, -115.1175

Hourly Observations for December 13, 2020

Temp ( °F °C ) Dew Point ( °F °C ) Humidity (%) Winds ( mph kmh ) Pressure ( in mb ) Visibility ( mi km ) Precip ( " mm )
12:53 am 00:53 Clear 41 5 12 -11.1 30 30 N 5 7 30.37 1029 10 16.0934 0 0
1:53 am 01:53 Clear 40 4.4 12 -11.1 32 32 N 6 9 30.39 1029 10 16.0934 0 0
2:53 am 02:53 Clear 37 2.8 11 -11.7 34 34 SW 7 11 30.41 1030 10 16.0934 0 0
3:53 am 03:53 Clear 36 2.2 12 -11.1 37 37 N 6 9 30.4 1030 10 16.0934 0 0
4:53 am 04:53 Clear 34 1.1 13 -10.6 42 42 SW 6 9 30.42 1030 10 16.0934 0 0
5:53 am 05:53 Clear 35 1.7 14 -10 42 42 Calm 30.44 1031 10 16.0934 0 0
6:53 am 06:53 Sunny 34 1.1 13 -10.6 42 42 WNW 5 7 30.45 1031 10 16.0934 0 0
7:53 am 07:53 Sunny 39 3.9 14 -10 36 36 Calm 30.45 1031 10 16.0934 0 0
8:53 am 08:53 Sunny 41 5 12 -11.1 30 30 VRB 3 6 30.46 1032 10 16.0934 0 0
9:53 am 09:53 Sunny 43 6.1 12 -11.1 28 28 SE 6 9 30.44 1031 10 16.0934 0 0
10:53 am 10:53 Sunny 44 6.7 10 -12.2 25 25 SE 6 9 30.41 1030 10 16.0934 0 0
11:53 am 11:53 Sunny 46 7.8 9 -12.8 22 22 VRB 5 7 30.38 1029 10 16.0934 0 0
12:53 pm 12:53 Sunny 48 8.9 8 -13.3 19 19 Calm 30.34 1027 10 16.0934 0 0
1:53 pm 13:53 Sunny 49 9.4 8 -13.3 19 19 S 6 9 30.3 1026 10 16.0934 0 0
2:53 pm 14:53 Sunny 48 8.9 7 -13.9 19 19 ESE 7 11 30.3 1026 10 16.0934 0 0
3:53 pm 15:53 Sunny 48 8.9 7 -13.9 19 19 SE 8 13 30.28 1025 10 16.0934 0 0
4:53 pm 16:53 Clear 46 7.8 7 -13.9 20 20 E 8 13 30.25 1024 10 16.0934 0 0
5:53 pm 17:53 Clear 45 7.2 7 -13.9 21 21 E 6 9 30.25 1024 10 16.0934 0 0
6:53 pm 18:53 Clear 45 7.2 6 -14.4 20 20 E 6 9 30.23 1024 10 16.0934 0 0
7:53 pm 19:53 Clear 44 6.7 7 -13.9 22 22 E 5 7 30.19 1022 10 16.0934 0 0
8:53 pm 20:53 Clear 44 6.7 7 -13.9 22 22 SSE 3 6 30.17 1022 10 16.0934 0 0
9:53 pm 21:53 Cloudy 43 6.1 9 -12.8 25 25 Calm 30.16 1021 10 16.0934 0 0
10:53 pm 22:53 Partly Cloudy 44 6.7 8 -13.3 23 23 Calm 30.12 1020 10 16.0934 0 0
11:53 pm 23:53 Cloudy 43 6.1 9 -12.8 25 25 NW 6 9 30.1 1019 10 16.0934 0 0

Powered by AerisWeather